Regional Weather Roundup
Issued by NWS

Home | Current Version | Previous Version | Graphics & Text | Print | Product List | Glossary On
Versions: 1 2 3 4 5 6 7 8 9 10 11 12 13 14 15 16 17 18 19 20 21 22 23 24 25 26 27
000
ASUS45 KTFX 190110
RWRMT
MONTANA REGIONAL WEATHER ROUNDUP
NATIONAL WEATHER SERVICE GREAT FALLS MT
700 PM MDT WED APR 18 2018

NOTE: "FAIR" INDICATES FEW OR NO CLOUDS BELOW 12000 FEET WITH NO
SIGNIFICANT WEATHER AND/OR OBSTRUCTIONS TO VISIBILITY.

MTZ001>007-043-190200-
WEST OF THE DIVIDE

CITY           SKY/WX    TMP DP  RH WIND       PRES   REMARKS
KALISPELL      FAIR      50  22  33 SE5       30.13F
MISSOULA       FAIR      54  19  25 NW6       30.08F
BUTTE          FAIR      47  17  30 S6        30.09F
MULLAN PASS    FAIR      38  19  46 CALM      30.09F
ANACONDA         N/A     48  16  27 E7        30.08F
DEER LODGE       N/A     46  18  31 N8        30.10F
HAMILTON         N/A     52  18  25 MISG      30.06F
PLAINS           N/A     57  25  29 NE3       30.11S
RONAN            N/A     50  23  34 N12       30.14S
THOMPSON FALLS   N/A     56  22  26 SW2       30.13F
$$

MTZ008-052>055-190200-
SOUTHWEST MONTANA

CITY           SKY/WX    TMP DP  RH WIND       PRES   REMARKS
BOZEMAN        FAIR      53  20  27 N3        30.10F
DILLON         FAIR      46  15  28 SE13      30.08F
ENNIS          MOSUNNY   46  14  27 S10       30.13S
W YELLOWSTONE  FAIR      39  10  30 CALM      30.11S
THREE FORKS      N/A     53  17  24 N2        30.08F
TWIN BRIDGES     N/A     50  16  26 S7        30.07F
$$

MTZ009-010-012-014-046-048-049-054-190200-
EAST SLOPES AND CENTRAL MONTANA

CITY           SKY/WX    TMP DP  RH WIND       PRES   REMARKS
CUT BANK       FAIR      47  18  31 W7        30.13S
GREAT FALLS    FAIR      50  14  23 SW3       30.13S
HELENA         FAIR      52  20  28 E9        30.10F
AUGUSTA        FAIR      46  12  25 CALM      30.12S
BOWMANS CRNR   FAIR      46   9  21 S5        30.10S
CHOTEAU          N/A     46  27  46 NE16      30.15R
POWER          FAIR      49  12  22 SW5       30.12S
RAYNESFORD     FAIR      51  12  21 E7        30.13R
ULM            FAIR      51  13  21 CALM      30.12F
WHITE SULPHUR    N/A     46  14  27 CALM      30.12S
$$

MTZ011-013-016-021-045-047-050-051-190200-
NORTH CENTRAL MONTANA

CITY           SKY/WX    TMP DP  RH WIND       PRES   REMARKS
HAVRE          FAIR      53  21  28 NE3       30.18F
LEWISTOWN      FAIR      49  21  33 E14       30.15S
N BAR RANCH    FAIR      46  19  34 NE9       30.19R
CHINOOK          N/A     50  34  53 E9        30.20S
GEYSER         FAIR      49  14  24 SE6       30.14S
GRASS RANGE    FAIR      49  23  36 E9        30.14R
STANFORD       FAIR      47  16  28 E7        30.14S
$$

MTZ017>020-022>027-061-062-190200-
NORTHEAST MONTANA

CITY           SKY/WX    TMP DP  RH WIND       PRES   REMARKS
GLASGOW        FAIR      51  35  54 NE10      30.22R
GLENDIVE       MOCLDY    51  33  50 NE13      30.23R
JORDAN           N/A     52  32  46 E9        30.20R
MALTA          MOSUNNY   54  28  37 N3        30.19S
SIDNEY         FAIR      48  37  65 NE15      30.25R
WOLF POINT     FAIR      52  33  48 NE15      30.25R
PLENTYWOOD       N/A     39  37  93 CALM      30.28R
POPLAR           N/A     48  34  57 NE12      30.26R
SCOBEY           N/A     45  26  47 N9        30.24R
$$

MTZ028>42-056>058-190200-
SOUTHCENTRAL AND SOUTHEAST MONTANA

CITY           SKY/WX    TMP DP  RH WIND       PRES   REMARKS
BAKER          MOCLDY    49  31  49 N8        30.23R
BILLINGS       FAIR      52  22  30 E15       30.16S
LIVINGSTON     FAIR      50  21  32 E17       30.10S
MILES CITY     CLOUDY    53  31  42 E6        30.21R
BIG TIMBER     SUNNY     50  18  27 E12       30.14S
FORSYTH          N/A     54  25  32 E7        30.20S
HARLOWTON      FAIR      49  14  25 SE3       30.14F
LAUREL           N/A     52  21  30 E15       30.16S
ROUNDUP          N/A     54  17  23 E8        30.07R
$$

REGIONAL REPORTS...DAKOTAS

CITY           SKY/WX    TMP DP  RH WIND       PRES   REMARKS
WILLISTON      CLOUDY    42  35  76 N12       30.28R
MINOT          FAIR      43  36  76 NW13      30.24R
DICKINSON      FAIR      47  34  60 NE10      30.20R
BEACH          FAIR      48  27  43 N10       30.26R
CROSBY         CLOUDY    37  37 100 N8        30.29R WCI  31
TIOGA          CLOUDY    36  36 100 N8        30.28S WCI  29
WATFORD CITY   FAIR      43  37  81 N12       30.25R
BISMARCK       FAIR      47  31  53 NE9       30.24R
GRAND FORKS    MOCLDY    41  34  76 N8        30.21R
FARGO          FAIR      42  35  76 NW13      30.17R
BUFFALO SD       N/A     51  31  46 NE10      30.15R
RAPID CITY     MOCLDY    50  30  46 N9        30.21R
$$

REGIONAL REPORTS...WYOMING/IDAHO/WASHINGTON

CITY           SKY/WX    TMP DP  RH WIND       PRES   REMARKS
GILLETTE         N/A    N/A N/A N/A MISG      30.20S
SHERIDAN       FAIR      51  20  29 E3        30.19F
BUFFALO WY     FAIR      47  19  33 E5        30.20F
CODY           FAIR      48  20  32 SE14      30.15R
YELLOWSTONE LA   N/A     34   5  29 CALM      30.17S
IDAHO FALLS    FAIR      50  20  30 N7        30.08F
SALMON         FAIR      53  21  28 NW3       30.04F
BOISE          CLOUDY    61  19  19 E12       29.95F
SPOKANE        PTSUNNY   53  23  31 NE10      30.11F
$$

REGIONAL REPORTS...ALBERTA

CITY           SKY/WX    TMP DP  RH WIND       PRES   REMARKS
CALGARY        MOSUNNY   43  18  36 S15       30.13R
CARDSTON         N/A     45  27  49 SE6         N/A
EDMONTON       SUNNY     46  19  34 S9        30.12S
FORT MCMURRAY  PTSUNNY   45  27  49 SW7       30.04S
HIGH LEVEL     MOSUNNY   45  14  29 W3        29.95F
LETHBRIDGE     PTSUNNY   50  19  29 S3        30.14R
MEDICINE HAT   MOSUNNY   54  21  28 SW12      30.16S
PEACE RIVER    MOSUNNY   41  23  48 SW10      30.03R
PINCHER CREEK  PTSUNNY   45  25  45 W10       30.12R
WATERTON GATE    N/A     43  23  45 SW9         N/A
$$

REGIONAL REPORTS...SASKATCHEWAN

CITY           SKY/WX    TMP DP  RH WIND       PRES   REMARKS
CORONACH         N/A     43  28  56 NE9         N/A
CYPRESS HILLS    N/A     39  25  56 S7          N/A
ESTEVAN        CLOUDY    37  34  87 NW6       30.27S
MOOSE JAW        N/A     41  30  65 SE8         N/A
PRINCE ALBERT  PTCLDY    45  28  53 W8        30.21S
REGINA         CLEAR     36  34  93 SW7       30.29R WCI  30
ROCKGLEN         N/A     41  28  60 NE2         N/A
SASKATOON      CLEAR     45  34  65 SW9       30.24S
SWIFT CURRENT  SUNNY     46  28  49 SE9       30.22S
VAL MARIE        N/A     50  27  40 NW2         N/A
$$




USA.gov is the U.S. government's official web portal to all federal, state and local government web resources and services.